Content
SEND FEEDBACK

Daily
Averages
Monthly
Summary
United States of America

CRESTED BUTTE, COLORADO


Home > North America > United States > Colorado
Elevation: 2828 meters     Latitude: 38 52N     Longitude: 106 58W

WEATHER
 
SELECT A DAY
Number of Records: 455,323;   Date Range: 1/1/95 - 10/30/14
 
SHARE

PRINT THIS DATA

[ ← Previous Day ]
WEATHER ALMANAC - 2 JULY, 2014
[ Next Day → ]
[ °F ]   °C
Weather ElementAverageHighLow
Temperature7.9 °C27 °C (2:35 pm) (3:15 pm)
Dewpoint-2.8 °C6 °C (10:15 am) (7:00 pm)
Humidity43.4 %66 % (5:35 am)15 % (7:15 pm)
Barometer1028.1 hPa1029.8 hPa (8:15 am)1024.7 hPa (6:15 pm)
Wind Speed7.9 km/h16.7 km/h (1:15 am)
Wind Gust29.6 km/h (1:55 pm)
Weather ElementAverage
Visibility15.9 km
Wind DirectionENE (82.7 °)

Weather ElementTotal
Precipitation---
Heating Degree Days13.7 (Base 18.3)
Averaged from 56 records on 2 July, 2014
WEATHER CONDITIONS BREAKOUT
WIND DIRECTION BREAKOUT
WEATHER BY HOUR - 2 JULY, 2014
[ °F ]   °C
Local TimeTemperatureDewpointHumidityBarometerVisibilityWind DirectionWind SpeedGust SpeedPrecipitationEventsConditions
12:35 AM14 °C4 °C51 %1027.4 hPa16.1 kmNNW (340°)11.1 km/hClear
12:55 AM12 °C3 °C54 %1027.4 hPa16.1 kmNorth (350°)14.8 km/hClear
1:15 AM11 °C1 °C50 %1027.4 hPa16.1 kmNorth (360°)16.7 km/hClear
1:35 AM11 °C-1 °C44 %1027.8 hPa16.1 kmNorth (10°)14.8 km/hClear
1:55 AM11 °C-1 °C44 %1027.4 hPa16.1 kmNNE (20°)11.1 km/hClear
2:15 AM10 °C-2 °C43 %1027.8 hPa16.1 kmNorth (10°)13 km/hClear
2:35 AM10 °C-2 °C43 %1027.8 hPa16.1 kmNNE (20°)13 km/hClear
2:55 AM10 °C-2 °C43 %1027.8 hPa16.1 kmNNE (30°)9.3 km/hClear
3:15 AM10 °C-2 °C43 %1027.8 hPa16.1 kmNNE (20°)9.3 km/hClear
3:35 AM9 °C-1 °C50 %1027.8 hPa16.1 kmNorth (10°)11.1 km/hClear
3:55 AM9 °C-1 °C50 %1027.8 hPa16.1 kmNE (40°)9.3 km/hClear
4:15 AM9 °C-1 °C50 %1027.8 hPa16.1 kmNNE (30°)5.6 km/hClear
4:35 AM9 °C-1 °C50 %1027.8 hPa16.1 kmNNE (30°)5.6 km/hClear
4:55 AM8 °C-1 °C53 %1028.1 hPa16.1 kmNNE (30°)11.1 km/hClear
5:15 AM8 °C-1 °C53 %1028.1 hPa16.1 kmNorth (10°)14.8 km/hClear
5:35 AM7 °C1 °C66 %1028.4 hPa16.1 kmNNE (20°)9.3 km/hClear
5:55 AM7 °C0 °C61 %1028.8 hPa16.1 kmEast (80°)7.4 km/hClear
6:15 AM7 °C1 °C66 %1028.8 hPa16.1 kmNNE (20°)9.3 km/hClear
6:35 AM8 °C1 °C62 %1028.8 hPa16.1 kmCalmClear
6:55 AM8 °C1 °C62 %1029.1 hPa16.1 kmNorth (350°)5.6 km/hClear
7:15 AM9 °C1 °C58 %1029.5 hPa16.1 kmCalmClear
7:35 AM9 °C2 °C62 %1029.5 hPa16.1 kmCalmClear
7:55 AM11 °C2 °C54 %1029.5 hPa16.1 kmCalmClear
8:15 AM12 °C2 °C51 %1029.8 hPa16.1 kmCalmClear
8:35 AM13 °C3 °C51 %1029.8 hPa16.1 kmCalmClear
8:55 AM14 °C3 °C48 %1029.5 hPa14.5 kmCalmClear
9:15 AM16 °C5 °C48 %1029.5 hPa16.1 kmNW (320°)5.6 km/hClear
9:35 AM17 °C5 °C45 %1029.1 hPa16.1 kmNNE (20°)7.4 km/hClear
9:55 AM18 °C5 °C42 %1028.8 hPa16.1 kmNorth (10°)9.3 km/hClear
10:15 AM18 °C6 °C45 %1028.4 hPa14.5 kmNNE (20°)11.1 km/hClear
10:35 AM19 °C6 °C43 %1028.4 hPa16.1 kmNNW (340°)7.4 km/hClear
10:55 AM20 °C5 °C37 %1028.4 hPa16.1 kmCalmClear
11:15 AM21 °C6 °C38 %1028.1 hPa14.5 kmSW (220°)5.6 km/hClear
11:35 AM22 °C5 °C33 %1028.1 hPa16.1 kmSE (140°)5.6 km/hClear
11:55 AM22 °C6 °C35 %1027.8 hPa16.1 kmWNW (290°)9.3 km/hClear
12:15 PM23 °C6 °C33 %1027.8 hPa16.1 kmCalmClear
12:35 PM23 °C-1 °C20 %1027.4 hPa16.1 kmWSW (240°)9.3 km/hClear
12:55 PM24 °C-2 °C18 %1027.4 hPa16.1 kmWest (270°)7.4 km/hClear
1:15 PM25 °C-1 °C18 %1027.1 hPa16.1 kmWest (260°)13 km/hClear
1:35 PM25 °C0 °C19 %1027.1 hPa16.1 kmCalmClear
1:55 PM26 °C1 °C20 %1026.8 hPa16.1 kmWSW (240°)14.8 km/h29.6 km/hClear
2:15 PM26 °C1 °C20 %1026.4 hPa16.1 kmWSW (240°)14.8 km/hClear
2:35 PM27 °C0 °C17 %1026.4 hPa16.1 kmWSW (240°)16.7 km/hClear
3:15 PM-17.8 °C-17.8 °C16.1 kmNorth
3:35 PM-17.8 °C-17.8 °C16.1 kmNorthClear
3:55 PM-17.8 °C-17.8 °C12.9 kmNorthPartly Cloudy
4:15 PM-17.8 °C-17.8 °C16.1 kmNorth
4:35 PM-17.8 °C-17.8 °C16.1 kmNorthClear
4:55 PM-17.8 °C-17.8 °C16.1 kmNorthClear
5:15 PM-17.8 °C-17.8 °C16.1 kmNorthClear
5:35 PM-17.8 °C-17.8 °C16.1 kmNorthClear
5:55 PM-17.8 °C-17.8 °C16.1 kmNorthClear
6:15 PM-17.8 °C-17.8 °C1024.7 hPa16.1 kmNorthClear
6:35 PM-17.8 °C-17.8 °C16.1 kmNorthClear
6:55 PM-17.8 °C-17.8 °C16.1 kmNorthClear
7:15 PM26 °C-3 °C15 %1025.1 hPa16.1 kmNorthClear
Hourly data recorded from KGUC, located 0 kilometers away from Crested Butte, Colorado







STORIES FROM OUR PARTNERS